FW5447 Weather Reports


time (UTC)temp
C
wind
direction
speed
KPH
gust
KPH
rain 1hr
cm
rain 24hr
cm
rain mn
cm
humidity
%
barometer
mb
20260506094516 12 244 3.2 6.4 0.00 0.00 0.00 34 1012.2
20260506093516 11 236 4.8 11.3 0.00 0.00 0.00 35 1012.1
20260506092516 11 245 3.2 9.7 0.00 0.00 0.00 33 1012.2
20260506091516 11 267 3.2 9.7 0.00 0.00 0.00 35 1012.1
20260506090516 11 345 4.8 11.3 0.00 0.00 0.00 35 1012.7
20260506085537 11 305 4.8 11.3 0.00 0.00 0.00 37 1011.7
20260506084517 11 14 6.4 14.5 0.00 0.00 0.00 37 1011.6
20260506083537 11 331 4.8 12.9 0.00 0.00 0.00 38 1011.9
20260506082518 11 22 6.4 14.5 0.00 0.00 0.00 40 1011.6
20260506081517 10 151 3.2 6.4 0.00 0.00 0.00 42 1012.2
20260506080518 10 264 4.8 11.3 0.00 0.00 0.00 41 1011.3
20260506072538 10 351 3.2 11.3 0.00 0.00 0.00 49 1011.0
20260506071518 10 47 3.2 8.0 0.00 0.00 0.00 50 1010.9
20260506070515 8 343 3.2 9.7 0.00 0.00 0.00 52 1011.3
20260506061557 7 218 1.6 6.4 0.00 0.00 0.00 72 1012.0
20260506060517 7 183 4.8 11.3 0.00 0.00 0.00 76 1011.7
20260506050518 4 202 1.6 8.0 0.00 0.00 0.00 89 1011.5
20260506044517 2 290 1.6 3.2 0.00 0.00 0.00 91 1011.5
20260506043538 2 211 1.6 3.2 0.00 0.00 0.00 92 1011.5
20260506042517 1 225 1.6 6.4 0.00 0.00 0.00 94 1011.4
20260506041518 0 174 1.6 9.7 0.00 0.00 0.00 95 1011.4
20260506040538 0 316 0.0 1.6 0.00 0.00 0.00 96 1011.5
20260506035518 -1 274 0.0 1.6 0.00 0.00 0.00 96 1011.6
20260506034518 -1 216 0.0 1.6 0.00 0.00 0.00 96 1011.6
20260506033535 -1 170 0.0 0.0 0.00 0.00 0.00 96 1011.5
20260506032556 -2 196 1.6 3.2 0.00 0.00 0.00 96 1011.4
20260506031516 -2 109 0.0 1.6 0.00 0.00 0.00 96 1011.3
20260506030516 -2 145 0.0 3.2 0.00 0.00 0.00 95 1011.3
20260506025516 -2 45 0.0 1.6 0.00 0.00 0.00 95 1011.3
20260506024536 -2 48 0.0 1.6 0.00 0.00 0.00 95 1011.1
20260506023537 -2 120 1.6 3.2 0.00 0.00 0.00 95 1011.1
20260506022516 -2 208 1.6 3.2 0.00 0.00 0.00 95 1011.1
20260506021517 -2 189 0.0 3.2 0.00 0.00 0.00 95 1010.9
20260506020537 -2 197 0.0 1.6 0.00 0.00 0.00 95 1010.9
20260506015517 -2 199 1.6 3.2 0.00 0.00 0.00 95 1010.7
20260506014517 -2 215 0.0 3.2 0.00 0.00 0.00 95 1010.7
20260506013517 -2 195 0.0 1.6 0.00 0.00 0.00 95 1010.7
20260506012518 -2 34 0.0 3.2 0.00 0.00 0.00 95 1010.7
20260506011518 -1 194 0.0 1.6 0.00 0.00 0.00 94 1010.6
20260506010518 -1 221 0.0 1.6 0.00 0.00 0.00 94 1010.4
20260506005538 -1 289 0.0 3.2 0.00 0.00 0.00 94 1010.3
20260506004515 -1 251 1.6 3.2 0.00 0.00 0.00 94 1010.2
20260506003515 -1 321 1.6 3.2 0.00 0.00 0.00 94 1010.1
20260506002515 -1 299 0.0 3.2 0.00 0.00 0.00 94 1010.1
20260506001515 -1 226 1.6 3.2 0.00 0.00 0.00 94 1010.0
20260506000516 -1 226 1.6 3.2 0.00 0.00 0.00 94 1010.0
20260505235516 -1 284 0.0 3.2 0.00 0.00 0.00 94 1009.9
20260505234536 -1 262 0.0 1.6 0.00 0.00 0.00 93 1010.0
20260505233516 -1 248 0.0 1.6 0.00 0.00 0.00 93 1009.9
20260505232516 0 241 0.0 1.6 0.00 0.00 0.00 93 1009.8
20260505231517 -1 215 1.6 3.2 0.00 0.00 0.00 93 1009.7
20260505230516 -1 225 1.6 3.2 0.00 0.00 0.00 92 1009.8
20260505225540 -1 246 0.0 3.2 0.00 0.00 0.00 92 1009.8
20260505224517 -1 206 0.0 1.6 0.00 0.00 0.00 91 1009.7
20260505223518 0 212 0.0 3.2 0.00 0.00 0.00 91 1009.7
20260505222518 0 208 0.0 1.6 0.00 0.00 0.00 91 1009.7
20260505221517 0 254 0.0 1.6 0.00 0.00 0.00 90 1009.7
20260505220518 0 206 0.0 1.6 0.00 0.00 0.00 89 1009.6
20260505215538 0 199 0.0 1.6 0.00 0.00 0.00 89 1009.3
20260505214518 0 221 0.0 3.2 0.00 0.00 0.00 88 1009.5
20260505213516 0 216 1.6 4.8 0.00 0.00 0.00 88 1009.4
20260505212538 0 197 0.0 1.6 0.00 0.00 0.00 87 1009.5
20260505211518 0 229 0.0 1.6 0.00 0.00 0.00 86 1009.4
20260505210518 0 232 0.0 3.2 0.00 0.00 0.00 85 1009.3
20260505205516 0 211 1.6 3.2 0.00 0.00 0.00 85 1009.1
20260505204516 0 204 1.6 4.8 0.00 0.00 0.00 85 1009.1
20260505203516 0 212 1.6 3.2 0.00 0.00 0.00 83 1009.1
20260505202516 0 214 1.6 3.2 0.00 0.00 0.00 82 1009.0
20260505201516 1 221 1.6 3.2 0.00 0.00 0.00 82 1008.9
20260505200516 1 215 1.6 1.6 0.00 0.00 0.00 81 1008.9
20260505195517 1 233 0.0 1.6 0.00 0.00 0.00 80 1008.9
20260505194517 1 202 1.6 3.2 0.00 0.00 0.00 78 1008.8
20260505193517 2 224 1.6 4.8 0.00 0.00 0.00 77 1008.8
20260505192517 2 254 0.0 1.6 0.00 0.00 0.00 75 1008.8
20260505191517 2 239 0.0 1.6 0.00 0.00 0.00 74 1008.7
20260505190517 3 215 0.0 1.6 0.00 0.00 0.00 73 1008.6
20260505185517 3 218 0.0 1.6 0.00 0.00 0.00 70 1008.5
20260505184518 3 240 1.6 3.2 0.00 0.00 0.00 69 1008.4
20260505183538 4 245 1.6 3.2 0.00 0.00 0.00 68 1008.4
20260505182518 5 233 0.0 1.6 0.00 0.00 0.00 66 1008.3
20260505181518 5 219 0.0 3.2 0.00 0.00 0.00 64 1008.1
20260505180518 5 193 1.6 6.4 0.00 0.00 0.00 62 1008.0
20260505175518 6 182 1.6 3.2 0.00 0.00 0.00 60 1007.8
20260505174515 6 194 1.6 3.2 0.00 0.00 0.00 59 1007.7
20260505173535 7 353 1.6 4.8 0.00 0.00 0.00 56 1007.6
20260505172516 7 212 1.6 4.8 0.00 0.00 0.00 56 1007.6
20260505171536 7 342 3.2 6.4 0.00 0.00 0.00 55 1007.4
20260505170516 7 198 1.6 4.8 0.00 0.00 0.00 53 1007.4
20260505165516 8 227 3.2 8.0 0.00 0.00 0.00 54 1007.3
20260505164516 8 111 3.2 9.7 0.00 0.00 0.00 54 1007.2
20260505163517 8 135 3.2 6.4 0.00 0.00 0.00 55 1007.2
20260505162517 8 165 1.6 4.8 0.00 0.00 0.00 54 1007.1
20260505161517 8 45 3.2 11.3 0.00 0.00 0.00 53 1007.0
20260505160517 9 312 3.2 8.0 0.00 0.00 0.00 53 1006.9
20260505152518 10 38 4.8 9.7 0.00 0.00 0.00 55 1006.7
20260505151518 10 143 4.8 11.3 0.00 0.00 0.00 55 1006.7
20260505150518 10 329 4.8 9.7 0.00 0.00 0.00 55 1006.7
20260505140515 12 179 4.8 8.0 0.00 0.00 0.00 54 1005.7
20260505124517 13 248 4.8 11.3 0.00 0.00 0.00 53 1005.0
20260505123518 13 280 4.8 11.3 0.00 0.00 0.00 53 1004.7
20260505122518 13 229 4.8 12.9 0.00 0.00 0.00 54 1004.6
20260505121518 13 157 4.8 11.3 0.00 0.00 0.00 54 1004.6
20260505120538 13 308 4.8 12.9 0.00 0.00 0.00 52 1004.4
20260505115518 13 235 4.8 12.9 0.00 0.00 0.00 52 1004.2
20260505114518 13 280 4.8 11.3 0.00 0.00 0.00 54 1004.2
20260505113518 13 333 4.8 11.3 0.00 0.00 0.00 54 1003.9
20260505112515 13 290 4.8 9.7 0.00 0.00 0.00 55 1004.2
20260505111515 13 298 4.8 12.9 0.00 0.00 0.00 54 1003.7
20260505110516 13 271 6.4 12.9 0.00 0.00 0.00 54 1004.0
20260505101517 13 287 4.8 14.5 0.00 0.05 0.00 55 1003.3
20260505100517 14 269 4.8 14.5 0.00 0.08 0.00 55 1003.5
20260505095517 15 336 4.8 12.9 0.00 0.08 0.00 52 1003.1